Linden, NJ

7:11 AM EDT on May 27, 2017 (GMT -0400)
Linden

Weather History for KLDJ - February, 2013

Change the Weather History Date:

Monday, February 11, 2013

  Actual Average (KEWR) Record (KEWR)
Temperature  
Mean Temperature 37 °F -  
Max Temperature 43 °F 40 °F 66 °F (1960)
Min Temperature 32 °F 24 °F -1 °F (1979)
Degree Days  
Heating Degree Days 28    
Moisture  
Dew Point 36 °F    
Average Humidity 91    
Maximum Humidity 99    
Minimum Humidity 64    
Precipitation  
Precipitation 0.35 in - - ()
Sea Level Pressure  
Sea Level Pressure 29.95 in    
Wind  
Wind Speed 1 mph (NW)    
Max Wind Speed 10 mph    
Max Gust Speed -    
Visibility 4 miles    
Events Fog , Rain    
Averages and records for this station are not official NWS values.
T = Trace of Precipitation, MM = Missing Value Source: NWS Daily Summary

Daily Weather History Graph

Daily Weather History Graph

Search for Another Location

Airport or City:

Trip Planner

Search our weather history database for the weather conditions in past years. The results will help you decide how hot, cold, wet, or windy it might be!

Date:

Astronomy

Feb. 11, 2013 Rise Set
Actual Time 6:55 AM EST 5:27 PM EST
Civil Twilight 6:27 AM EST 5:55 PM EST
Nautical Twilight 5:55 AM EST 6:27 PM EST
Astronomical Twilight 5:23 AM EST 6:59 PM EST
Moon 7:17 AM EST (2/11) 7:22 PM EST (2/11)
Length of Visible Light 11h 28m
Length of Day
10h 31m
Waxing Crescent, 3% of the Moon is Illuminated
Feb 11
Waxing Crescent
Feb 17
First Quarter
Feb 25
Full
Mar 4
Last Quarter
Mar 11
New

Hourly Weather History & Observations

Time (EST) Temp. Windchill Dew Point Humidity Pressure Visibility Wind Dir Wind Speed Gust Speed Precip Events Conditions
12:15 AM 32.2 °F - 23.5 °F 70% 30.35 in 10.0 mi Calm Calm - N/A   Clear
12:35 AM 32.5 °F 28.1 °F 21.6 °F 64% 30.34 in 10.0 mi South 4.6 mph - N/A   Clear
12:55 AM 32.5 °F - 21.4 °F 64% 30.32 in 10.0 mi Calm Calm - N/A   Clear
1:15 AM 32.4 °F - 22.3 °F 66% 30.31 in 10.0 mi Calm Calm - N/A   Scattered Clouds
1:35 AM 32.4 °F - 23.0 °F 68% 30.31 in 10.0 mi Calm Calm - N/A   Scattered Clouds
1:55 AM 32.0 °F - 23.5 °F 71% 30.31 in 10.0 mi Calm Calm - N/A   Clear
2:15 AM 32.4 °F - 23.9 °F 71% 30.29 in 10.0 mi Calm Calm - N/A   Scattered Clouds
2:35 AM 32.4 °F - 24.6 °F 73% 30.27 in 10.0 mi Calm Calm - N/A   Mostly Cloudy
2:55 AM 32.4 °F - 24.4 °F 73% 30.27 in 10.0 mi Calm Calm - N/A   Overcast
3:15 AM 32.0 °F - 25.0 °F 75% 30.25 in 10.0 mi Calm Calm - N/A   Overcast
3:35 AM 32.5 °F - 25.0 °F 74% 30.25 in 10.0 mi Calm Calm - N/A   Overcast
4:15 AM 33.6 °F - 26.6 °F 75% 30.21 in 10.0 mi Calm Calm - N/A   Overcast
4:35 AM 33.6 °F - 27.1 °F 77% 30.21 in 10.0 mi Calm Calm - N/A   Overcast
4:55 AM 34.2 °F - 28.2 °F 79% 30.19 in 10.0 mi Calm Calm - N/A   Overcast
5:15 AM 34.3 °F - 29.3 °F 82% 30.18 in 10.0 mi Calm Calm - N/A Rain Light Rain
5:35 AM 34.2 °F - 30.0 °F 85% 30.17 in 10.0 mi Calm Calm - N/A Rain Light Rain
5:55 AM 34.2 °F - 30.6 °F 87% 30.16 in 7.0 mi Calm Calm - N/A Rain Light Rain
6:15 AM 34.3 °F - 31.1 °F 88% 30.15 in 5.0 mi Calm Calm - 0.01 in Rain Light Rain
6:35 AM 34.7 °F - 32.0 °F 90% 30.14 in 4.0 mi Calm Calm - 0.04 in Rain Rain
6:55 AM 35.6 °F - 33.4 °F 92% 30.12 in 3.0 mi Calm Calm - 0.05 in   Drizzle
7:15 AM 36.5 °F 32.7 °F 34.7 °F 93% 30.09 in 4.0 mi East 4.6 mph - N/A   Drizzle
7:35 AM 37.2 °F 33.6 °F 35.8 °F 95% 30.07 in 3.0 mi East 4.6 mph - 0.05 in Rain Rain
7:55 AM 37.9 °F 35.5 °F 36.5 °F 95% 30.06 in 2.5 mi ENE 3.5 mph - 0.07 in Rain Light Rain
8:15 AM 39.0 °F 36.8 °F 37.4 °F 94% 30.04 in 2.0 mi East 3.5 mph - 0.03 in Rain Heavy Rain
8:35 AM 40.1 °F - 38.7 °F 95% 30.03 in 1.8 mi Calm Calm - 0.07 in Rain Heavy Rain
8:55 AM 39.7 °F 36.5 °F 38.5 °F 95% 30.03 in 1.2 mi NW 4.6 mph - 0.13 in Rain Rain
9:15 AM 38.5 °F 36.1 °F 37.2 °F 95% 30.01 in 1.2 mi NNW 3.5 mph - 0.03 in Rain Light Rain
9:35 AM 38.7 °F 35.2 °F 37.6 °F 96% 30.00 in 1.5 mi NNW 4.6 mph - 0.05 in Rain Light Rain
9:55 AM 39.2 °F 37.0 °F 37.8 °F 95% 30.00 in 2.0 mi NW 3.5 mph - 0.06 in   Drizzle
10:15 AM 39.2 °F 37.0 °F 37.9 °F 95% 29.98 in 1.2 mi North 3.5 mph - 0.01 in   Drizzle
10:35 AM 38.8 °F - 37.8 °F 96% 29.97 in 1.2 mi Calm Calm - 0.02 in   Drizzle
10:55 AM 39.2 °F - 37.9 °F 95% 29.96 in 1.2 mi Calm Calm - 0.02 in   Light Drizzle
11:15 AM 38.3 °F 33.9 °F 37.4 °F 97% 29.96 in 0.8 mi WNW 5.8 mph - N/A   Light Drizzle
11:35 AM 37.8 °F 35.3 °F 36.7 °F 96% 29.94 in 0.8 mi NW 3.5 mph - N/A   Light Drizzle
11:55 AM 38.5 °F 36.1 °F 37.4 °F 96% 29.93 in 0.8 mi WNW 3.5 mph - 0.01 in   Drizzle
12:15 PM 38.7 °F - 37.8 °F 97% 29.91 in 0.8 mi Calm Calm - N/A   Light Drizzle
12:35 PM 39.7 °F - 38.8 °F 97% 29.89 in 0.8 mi Calm Calm - N/A   Light Drizzle
12:55 PM 40.3 °F - 39.4 °F 97% 29.87 in 0.5 mi Calm Calm - N/A Fog Fog
1:15 PM 40.6 °F - 39.7 °F 97% 29.84 in 0.5 mi Calm Calm - N/A Fog Fog
1:35 PM 41.0 °F - 40.1 °F 97% 29.83 in 0.5 mi Calm Calm - N/A Fog Fog
1:55 PM 41.2 °F - 40.3 °F 97% 29.82 in 0.8 mi Calm Calm - N/A   Overcast
2:15 PM 41.5 °F - 40.6 °F 97% 29.82 in 1.0 mi Calm Calm - N/A   Overcast
2:35 PM 41.2 °F - 40.3 °F 97% 29.80 in 0.5 mi Calm Calm - N/A Fog Fog
2:55 PM 41.9 °F - 41.0 °F 97% 29.80 in 0.8 mi Calm Calm - N/A   Overcast
3:15 PM 41.9 °F - 41.0 °F 97% 29.78 in 0.8 mi Calm Calm - N/A   Overcast
3:35 PM 41.9 °F - 41.0 °F 97% 29.77 in 1.0 mi Calm Calm - N/A   Overcast
4:15 PM 41.9 °F - 41.0 °F 97% 29.74 in 0.2 mi Calm Calm - N/A Fog Fog
4:35 PM 41.9 °F - 41.0 °F 97% 29.73 in 0.2 mi Calm Calm - N/A Fog Fog
4:55 PM 41.9 °F - 41.2 °F 97% 29.73 in 0.2 mi Calm Calm - N/A Fog Fog
6:15 PM 41.7 °F - 41.0 °F 97% 29.70 in 0.5 mi Calm Calm - N/A Fog Fog
6:35 PM 41.0 °F - 40.3 °F 97% 29.69 in 0.5 mi Calm Calm - N/A Fog Fog
6:55 PM 41.0 °F - 40.3 °F 97% 29.68 in 0.5 mi Calm Calm - 0.01 in Fog Fog
7:15 PM 40.6 °F - 39.9 °F 97% 29.68 in 0.5 mi Calm Calm - N/A Fog Fog
7:35 PM 41.0 °F - 40.1 °F 97% 29.68 in 0.5 mi Calm Calm - N/A Fog Fog
7:55 PM 40.5 °F - 39.9 °F 98% 29.67 in 0.5 mi Calm Calm - N/A Fog Fog
8:15 PM 40.6 °F - 39.9 °F 97% 29.67 in 0.2 mi Calm Calm - N/A Fog Fog
8:35 PM 40.6 °F - 40.1 °F 98% 29.67 in 0.2 mi Calm Calm - N/A Fog Fog
8:55 PM 41.0 °F - 40.3 °F 97% 29.67 in 0.2 mi Calm Calm - N/A Fog Fog
9:15 PM 41.0 °F - 40.3 °F 97% 29.68 in 0.2 mi Calm Calm - N/A Fog Fog
9:35 PM 41.0 °F - 40.3 °F 97% 29.68 in 0.5 mi Calm Calm - N/A Fog Fog
9:55 PM 40.5 °F 38.4 °F 39.7 °F 97% 29.70 in 0.5 mi NW 3.5 mph - N/A Fog Fog
10:15 PM 41.4 °F - 41.0 °F 99% 29.71 in 1.5 mi Calm Calm - N/A   Overcast
10:35 PM 42.6 °F 37.8 °F 42.1 °F 98% 29.71 in 5.0 mi WNW 8.1 mph - N/A   Scattered Clouds
10:55 PM 42.8 °F 37.0 °F 42.3 °F 98% 29.72 in 5.0 mi WNW 10.4 mph - N/A   Mostly Cloudy
11:15 PM 42.3 °F 37.3 °F 41.9 °F 99% 29.72 in 5.0 mi WNW 8.1 mph - N/A   Mostly Cloudy
11:35 PM 41.9 °F 38.2 °F 41.4 °F 98% 29.73 in 5.0 mi WNW 5.8 mph - N/A   Mostly Cloudy
11:55 PM 42.1 °F 40.2 °F 41.5 °F 98% 29.73 in 5.0 mi NW 3.5 mph - N/A   Scattered Clouds